�������l�o���
Date,Time,MP-1(��Sv/h),MP-2(��Sv/h),MP-3(��Sv/h),MP-4(��Sv/h),MP-5(��Sv/h),MP-6(��Sv/h),MP-7(��Sv/h),MP-8(��Sv/h),����,����(m/s),���J
2017/10/19,00:00,0.905,1.443,0.933,1.730,1.193,0.497,0.910,0.846,�k��,0.9,��
2017/10/19,00:10,0.907,1.445,0.935,1.729,1.190,0.500,0.913,0.849,�k�k��,1.9,��
2017/10/19,00:20,0.907,1.443,0.933,1.731,1.190,0.500,0.911,0.847,�k��,0.6,��
2017/10/19,00:30,0.909,1.442,0.934,1.728,1.192,0.497,0.913,0.846,�k�k��,1.1,��
2017/10/19,00:40,0.907,1.442,0.934,1.731,1.192,0.497,0.911,0.849,�k��,1.4,��
2017/10/19,00:50,0.907,1.445,0.933,1.729,1.191,0.498,0.914,0.847,�쐼,0.9,��
2017/10/19,01:00,0.908,1.442,0.932,1.731,1.192,0.498,0.912,0.848,���쐼,1.1,��
2017/10/19,01:10,0.908,1.443,0.935,1.733,1.191,0.498,0.910,0.846,��쐼,1.4,�L
2017/10/19,01:20,0.908,1.445,0.935,1.732,1.190,0.498,0.912,0.847,�쐼,2.0,�L
2017/10/19,01:30,0.908,1.445,0.934,1.728,1.192,0.499,0.914,0.848,�쐼,2.0,�L
2017/10/19,01:40,0.907,1.441,0.933,1.729,1.190,0.499,0.913,0.847,��,1.7,�L
2017/10/19,01:50,0.910,1.443,0.934,1.730,1.190,0.500,0.914,0.848,��쐼,2.0,�L
2017/10/19,02:00,0.909,1.446,0.935,1.730,1.188,0.500,0.912,0.846,�쐼,2.3,�L
2017/10/19,02:10,0.909,1.445,0.935,1.727,1.192,0.498,0.913,0.848,�쐼,2.6,�L
2017/10/19,02:20,0.907,1.444,0.934,1.732,1.191,0.500,0.915,0.848,�쐼,3.1,�L
2017/10/19,02:30,0.907,1.444,0.937,1.731,1.189,0.500,0.912,0.848,�쐼,4.0,�L
2017/10/19,02:40,0.908,1.444,0.933,1.730,1.192,0.500,0.915,0.847,�쐼,4.1,�L
2017/10/19,02:50,0.909,1.445,0.933,1.729,1.191,0.498,0.913,0.846,�쐼,4.2,�L
2017/10/19,03:00,0.908,1.440,0.934,1.727,1.189,0.500,0.912,0.845,�쐼,4.5,�L
2017/10/19,03:10,0.905,1.440,0.931,1.726,1.185,0.500,0.909,0.847,�쐼,4.4,�L
2017/10/19,03:20,0.903,1.435,0.930,1.723,1.182,0.499,0.911,0.847,�쐼,4.1,�L
2017/10/19,03:30,0.902,1.433,0.928,1.724,1.183,0.497,0.909,0.844,�쐼,3.7,�L
2017/10/19,03:40,0.899,1.431,0.928,1.722,1.181,0.498,0.909,0.844,���쐼,4.3,�L
2017/10/19,03:50,0.901,1.428,0.929,1.718,1.176,0.499,0.908,0.844,���쐼,4.0,�L
2017/10/19,04:00,0.896,1.423,0.925,1.717,1.173,0.497,0.908,0.842,���쐼,4.0,�L
2017/10/19,04:10,0.896,1.419,0.924,1.718,1.174,0.496,0.906,0.841,���쐼,3.8,�L
2017/10/19,04:20,0.894,1.418,0.922,1.713,1.172,0.496,0.906,0.841,���쐼,3.6,�L
2017/10/19,04:30,0.894,1.418,0.920,1.712,1.171,0.496,0.906,0.840,���쐼,2.6,�L
2017/10/19,04:40,0.894,1.417,0.920,1.708,1.169,0.496,0.904,0.840,���쐼,2.3,�L
2017/10/19,04:50,0.893,1.413,0.920,1.707,1.168,0.495,0.902,0.840,���쐼,2.0,�L
2017/10/19,05:00,0.891,1.411,0.918,1.704,1.164,0.495,0.900,0.840,��,1.9,�L
2017/10/19,05:10,0.889,1.407,0.918,1.703,1.165,0.496,0.901,0.839,��,1.2,�L
2017/10/19,05:20,0.890,1.409,0.918,1.703,1.163,0.494,0.900,0.838,��,1.2,�L
2017/10/19,05:30,0.891,1.406,0.916,1.702,1.163,0.494,0.901,0.839,��,1.9,�L
2017/10/19,05:40,0.886,1.406,0.917,1.699,1.161,0.493,0.902,0.839,��,1.2,�L
2017/10/19,05:50,0.887,1.401,0.917,1.697,1.159,0.492,0.900,0.839,���쐼,1.5,�L
2017/10/19,06:00,0.885,1.403,0.915,1.696,1.158,0.492,0.900,0.838,���쐼,2.0,�L
2017/10/19,06:10,0.886,1.397,0.914,1.689,1.158,0.494,0.899,0.836,-,CALM,�L
2017/10/19,06:20,0.885,1.394,0.913,1.688,1.153,0.491,0.897,0.837,�쐼,2.9,�L
2017/10/19,06:30,0.882,1.391,0.912,1.682,1.151,0.491,0.895,0.836,-,CALM,�L
2017/10/19,06:40,0.882,1.389,0.908,1.682,1.150,0.490,0.895,0.833,-,CALM,�L
2017/10/19,06:50,0.879,1.382,0.906,1.677,1.143,0.490,0.893,0.833,��,1.2,�L
2017/10/19,07:00,0.877,1.380,0.906,1.672,1.141,0.491,0.892,0.832,���쐼,2.2,�L
2017/10/19,07:10,0.880,1.383,0.906,1.671,1.142,0.490,0.891,0.833,���쐼,2.5,�L
2017/10/19,07:20,0.881,1.386,0.907,1.674,1.144,0.490,0.892,0.832,���쐼,2.6,�L
2017/10/19,07:30,0.883,1.384,0.905,1.673,1.141,0.491,0.893,0.833,��,2.6,�L
2017/10/19,07:40,0.881,1.387,0.907,1.674,1.144,0.490,0.893,0.834,���k��,1.9,�L
2017/10/19,07:50,0.881,1.385,0.907,1.674,1.141,0.488,0.892,0.833,���k��,2.5,�L
2017/10/19,08:00,0.882,1.384,0.907,1.672,1.141,0.490,0.893,0.833,���k��,3.3,�L
2017/10/19,08:10,0.879,1.383,0.905,1.670,1.138,0.490,0.891,0.833,�k��,3.7,�L
2017/10/19,08:20,0.881,1.383,0.907,1.672,1.142,0.488,0.891,0.833,�k��,3.5,�L
2017/10/19,08:30,0.882,1.386,0.904,1.664,1.140,0.489,0.892,0.835,�k��,4.0,�L
2017/10/19,08:40,0.883,1.386,0.905,1.663,1.144,0.490,0.893,0.835,�k��,4.0,�L
2017/10/19,08:50,0.879,1.384,0.904,1.664,1.138,0.489,0.893,0.833,�k��,3.7,�L
2017/10/19,09:00,0.879,1.382,0.905,1.665,1.140,0.490,0.891,0.833,�k��,4.7,�L
2017/10/19,09:10,0.881,1.383,0.907,1.665,1.138,0.489,0.892,0.833,�k��,4.2,�L
2017/10/19,09:20,0.880,1.389,0.904,1.671,1.138,0.489,0.894,0.830,�k��,3.1,�L
2017/10/19,09:30,0.881,1.386,0.904,1.671,1.142,0.488,0.893,0.834,�k��,4.0,�L
2017/10/19,09:40,0.880,1.387,0.907,1.672,1.142,0.489,0.894,0.834,�k��,4.9,�L
2017/10/19,09:50,0.877,1.382,0.906,1.669,1.138,0.488,0.892,0.834,�k��,4.2,�L
2017/10/19,10:00,0.879,1.382,0.907,1.673,1.136,0.486,0.892,0.832,�k��,3.4,�L
2017/10/19,10:10,0.877,1.380,0.903,1.669,1.136,0.487,0.894,0.832,�k��,3.2,�L
2017/10/19,10:20,0.879,1.382,0.903,1.669,1.135,0.488,0.892,0.832,�k��,2.9,�L
2017/10/19,10:30,0.879,1.384,0.904,1.667,1.136,0.487,0.893,0.833,�k��,3.0,�L
2017/10/19,10:40,0.880,1.380,0.905,1.671,1.137,0.490,0.892,0.834,�k��,2.5,�L
2017/10/19,10:50,0.881,1.383,0.903,1.670,1.138,0.489,0.892,0.835,�k��,2.6,�L
2017/10/19,11:00,0.878,1.387,0.903,1.672,1.139,0.490,0.889,0.835,�k�k��,2.6,�L
2017/10/19,11:10,0.879,1.379,0.906,1.671,1.137,0.491,0.891,0.832,�k��,3.5,�L
2017/10/19,11:20,0.882,1.378,0.906,1.672,1.137,0.489,0.892,0.832,�k��,3.8,�L
2017/10/19,11:30,0.882,1.383,0.905,1.670,1.137,0.489,0.891,0.832,�k�k��,3.9,�L
2017/10/19,11:40,0.878,1.383,0.906,1.672,1.136,0.490,0.892,0.833,�k��,4.0,�L
2017/10/19,11:50,0.881,1.381,0.906,1.671,1.137,0.490,0.891,0.833,�k��,3.5,�L
2017/10/19,12:00,0.881,1.384,0.905,1.671,1.136,0.492,0.890,0.834,�k��,3.0,�L
2017/10/19,12:10,0.880,1.385,0.908,1.673,1.137,0.492,0.893,0.833,�k��,3.9,�L
2017/10/19,12:20,0.882,1.386,0.908,1.672,1.136,0.490,0.892,0.834,�k��,3.2,�L
2017/10/19,12:30,0.881,1.384,0.907,1.670,1.135,0.492,0.891,0.833,�k��,3.6,�L
2017/10/19,12:40,0.879,1.383,0.906,1.672,1.135,0.492,0.894,0.834,�k�k��,3.6,�L
2017/10/19,12:50,0.882,1.385,0.906,1.671,1.137,0.489,0.894,0.835,�k�k��,3.6,�L
2017/10/19,13:00,0.881,1.386,0.907,1.672,1.138,0.491,0.894,0.832,�k�k��,4.3,�L
2017/10/19,13:10,0.882,1.386,0.906,1.671,1.137,0.491,0.893,0.833,�k�k��,4.6,�L
2017/10/19,13:20,0.881,1.386,0.906,1.674,1.138,0.490,0.893,0.833,�k�k��,3.4,�L
2017/10/19,13:30,0.883,1.385,0.907,1.673,1.139,0.491,0.894,0.834,�k�k��,3.3,�L
2017/10/19,13:40,0.884,1.385,0.907,1.674,1.139,0.490,0.893,0.834,�k��,2.9,�L
2017/10/19,13:50,0.883,1.387,0.909,1.673,1.139,0.492,0.893,0.835,�k�k��,2.9,�L
2017/10/19,14:00,0.880,1.385,0.906,1.672,1.138,0.491,0.890,0.835,�k�k��,3.4,�L
2017/10/19,14:10,0.881,1.384,0.905,1.672,1.135,0.491,0.890,0.833,�k��,4.5,�L
2017/10/19,14:20,0.882,1.385,0.906,1.672,1.135,0.491,0.891,0.832,-,CALM,�L
2017/10/19,14:30,0.879,1.380,0.904,1.667,1.133,0.489,0.890,0.832,�k��,3.5,�L
2017/10/19,14:40,0.877,1.372,0.903,1.665,1.127,0.490,0.889,0.832,-,CALM,�L
2017/10/19,14:50,0.877,1.375,0.902,1.663,1.127,0.490,0.888,0.830,�k�k��,4.0,�L
2017/10/19,15:00,0.874,1.373,0.903,1.663,1.127,0.493,0.888,0.831,�k�k��,2.9,�L
2017/10/19,15:10,0.878,1.375,0.903,1.661,1.128,0.491,0.888,0.831,���k��,0.9,�L
2017/10/19,15:20,0.882,1.378,0.906,1.662,1.130,0.492,0.890,0.832,�k�k��,2.6,�L
2017/10/19,15:30,0.881,1.381,0.906,1.666,1.130,0.491,0.889,0.831,�k�k��,4.2,�L
2017/10/19,15:40,0.881,1.381,0.906,1.665,1.131,0.491,0.889,0.834,�k,4.2,�L
2017/10/19,15:50,0.881,1.381,0.905,1.665,1.131,0.490,0.888,0.832,�k,3.6,�L
2017/10/19,16:00,0.880,1.381,0.905,1.669,1.131,0.491,0.890,0.831,�k,3.8,�L
2017/10/19,16:10,0.880,1.382,0.903,1.666,1.133,0.490,0.891,0.833,�k,3.3,�L
2017/10/19,16:20,0.880,1.384,0.906,1.670,1.134,0.491,0.891,0.833,�k,3.8,�L
2017/10/19,16:30,0.876,1.384,0.904,1.672,1.135,0.489,0.893,0.834,�k�k��,4.0,�L
2017/10/19,16:40,0.877,1.386,0.906,1.672,1.135,0.489,0.892,0.832,�k,3.8,�L
2017/10/19,16:50,0.880,1.384,0.906,1.672,1.133,0.490,0.893,0.833,�k,3.8,�L
2017/10/19,17:00,0.882,1.388,0.905,1.669,1.135,0.489,0.892,0.832,�k�k��,3.5,�L
2017/10/19,17:10,0.882,1.388,0.905,1.672,1.133,0.490,0.893,0.832,�k,3.8,�L
2017/10/19,17:20,0.879,1.387,0.906,1.673,1.136,0.491,0.893,0.833,�k�k��,3.4,�L
2017/10/19,17:30,0.882,1.387,0.906,1.672,1.135,0.489,0.894,0.831,�k��,4.6,�L
2017/10/19,17:40,0.883,1.389,0.906,1.676,1.138,0.490,0.893,0.834,�k�k��,4.0,�L
2017/10/19,17:50,0.880,1.384,0.904,1.674,1.136,0.491,0.892,0.833,�k��,4.6,�L
2017/10/19,18:00,0.878,1.381,0.904,1.672,1.137,0.492,0.892,0.831,�k�k��,5.2,�L
2017/10/19,18:10,0.878,1.379,0.902,1.668,1.134,0.490,0.891,0.830,�k�k��,4.4,�L
2017/10/19,18:20,0.882,1.381,0.901,1.666,1.133,0.490,0.892,0.831,�k�k��,5.0,�L
2017/10/19,18:30,0.880,1.379,0.905,1.662,1.129,0.491,0.889,0.831,�k�k��,5.1,�L
2017/10/19,18:40,0.882,1.380,0.904,1.663,1.128,0.490,0.889,0.831,�k�k��,5.4,�L
2017/10/19,18:50,0.882,1.382,0.904,1.663,1.128,0.491,0.891,0.831,�k�k��,5.9,�L
2017/10/19,19:00,0.880,1.380,0.904,1.666,1.129,0.490,0.889,0.832,�k�k��,7.2,�L
2017/10/19,19:10,0.879,1.381,0.905,1.665,1.129,0.492,0.889,0.830,�k�k��,6.3,�L
2017/10/19,19:20,0.879,1.378,0.903,1.665,1.130,0.491,0.888,0.832,�k�k��,5.3,�L
2017/10/19,19:30,0.877,1.371,0.899,1.659,1.126,0.491,0.888,0.830,�k�k��,4.6,�L
2017/10/19,19:40,0.875,1.370,0.901,1.657,1.124,0.492,0.889,0.831,�k,2.9,�L
2017/10/19,19:50,0.879,1.377,0.904,1.658,1.126,0.491,0.889,0.832,�k,3.1,�L
2017/10/19,20:00,0.879,1.374,0.905,1.661,1.127,0.491,0.889,0.833,�k�k��,3.8,�L
2017/10/19,20:10,0.884,1.377,0.902,1.665,1.129,0.492,0.890,0.831,�k�k��,3.9,�L
2017/10/19,20:20,0.884,1.378,0.905,1.666,1.130,0.491,0.889,0.831,�k�k��,3.8,�L
2017/10/19,20:30,0.884,1.379,0.906,1.665,1.129,0.491,0.892,0.832,�k�k��,4.5,�L
2017/10/19,20:40,0.882,1.380,0.905,1.667,1.130,0.492,0.891,0.832,�k�k��,5.1,�L
2017/10/19,20:50,0.879,1.380,0.906,1.664,1.130,0.492,0.889,0.833,�k�k��,5.0,�L
2017/10/19,21:00,0.880,1.376,0.905,1.664,1.126,0.492,0.890,0.832,�k�k��,5.1,�L
2017/10/19,21:10,0.884,1.376,0.903,1.661,1.127,0.493,0.889,0.831,�k�k��,5.6,�L
2017/10/19,21:20,0.880,1.376,0.903,1.660,1.129,0.491,0.890,0.832,�k�k��,5.4,�L
2017/10/19,21:30,0.881,1.376,0.903,1.660,1.124,0.492,0.889,0.830,�k�k��,5.5,�L
2017/10/19,21:40,0.881,1.377,0.905,1.657,1.124,0.492,0.888,0.830,�k�k��,6.1,�L
2017/10/19,21:50,0.879,1.380,0.904,1.657,1.128,0.492,0.887,0.831,�k�k��,6.3,�L
2017/10/19,22:00,0.880,1.378,0.904,1.659,1.125,0.491,0.887,0.832,�k�k��,6.1,�L
2017/10/19,22:10,0.881,1.379,0.902,1.660,1.130,0.491,0.888,0.832,�k�k��,6.2,�L
2017/10/19,22:20,0.879,1.380,0.904,1.659,1.127,0.492,0.887,0.831,�k�k��,6.2,�L
2017/10/19,22:30,0.882,1.379,0.903,1.661,1.127,0.493,0.889,0.831,�k�k��,6.0,�L
2017/10/19,22:40,0.879,1.378,0.904,1.660,1.125,0.492,0.887,0.832,�k�k��,6.5,�L
2017/10/19,22:50,0.881,1.377,0.903,1.660,1.127,0.494,0.887,0.831,�k�k��,6.0,�L
2017/10/19,23:00,0.880,1.381,0.903,1.661,1.128,0.493,0.891,0.830,�k�k��,6.9,�L
2017/10/19,23:10,0.878,1.378,0.902,1.659,1.131,0.491,0.888,0.832,�k�k��,6.3,�L
2017/10/19,23:20,0.876,1.376,0.902,1.661,1.124,0.492,0.888,0.830,�k�k��,6.4,�L
2017/10/19,23:30,0.878,1.375,0.901,1.658,1.120,0.490,0.888,0.828,�k�k��,5.3,�L
2017/10/19,23:40,0.878,1.375,0.903,1.656,1.121,0.492,0.886,0.830,�k�k��,5.1,�L
2017/10/19,23:50,0.877,1.374,0.903,1.655,1.119,0.492,0.887,0.828,�k,5.0,�L
